Miscellaneous Local Product
Issued by NWS North Platte, NE

Home | Current Version | Previous Version | Text Only | Print | Product List | Glossary On
Versions: 1 2 3 4 5 6 7 8 9 10 11 12 13 14 15 16 17 18 19 20 21 22 23 24 25 26 27 28 29 30 31 32 33 34 35 36 37 38 39 40 41 42 43 44 45 46 47 48 49 50
000
AXUS43 KLBF 031310
MISLBF


WESTERN AND NORTH CENTRAL NEBRASKA HOURLY WEATHER ROUNDUP
NATIONAL WEATHER SERVICE NORTH PLATTE NE
800 AM CDT MON AUG 03 2015

***STATIONS NOT REPORTING VARIABLES SUCH AS SKY/WEATHER OR
PRESSURE ARE PROVIDED BY THE NEBRASKA DEPARTMENT OF
ROADS...RAWS...AND APRS NETWORKS...AND ARE NOT UNDER
NATIONAL WEATHER SERVICE QUALITY CONTROL***

...OBSERVATIONS IN AND NEAR THE EASTERN PANHANDLE OF NEBRASKA...

CITY           SKY/WX    TMP DP  RH WIND       PRES   REMARKS
PINE RIDGE     MOSUNNY   68  57  68 E10       30.03R
CHADRON        PTSUNNY   60  56  86 W3        30.02R
ALLIANCE       PTSUNNY   61  58  90 E3        30.03R
SIDNEY         MOSUNNY   63  56  78 NE5       30.05R
BIG SPRINGS      N/A     63  59  88 CALM        N/A
$$

...OBSERVATIONS IN NORTH CENTRAL NEBRASKA...

CITY           SKY/WX    TMP DP  RH WIND       PRES   REMARKS
THEDFORD       PTSUNNY   65  62  91 SE5       30.05R
AINSWORTH      MOSUNNY   64  61  91 CALM      30.04R
O`NEILL        CLOUDY    65  62  91 SE8       30.00F
ORD            PTSUNNY   64  61  90 E3        30.04R
BROKEN BOW     PTSUNNY   67  61  81 E7        30.04R
SPRINGVIEW       N/A     62  61  96 CALM        N/A
CHAMBERS         N/A     63  61  92 S6          N/A
EWING            N/A     64  62  93 CALM        N/A
$$

...OBSERVATIONS IN SOUTHWEST NEBRASKA AND FAR NORTHEAST COLORADO...

CITY           SKY/WX    TMP DP  RH WIND       PRES   REMARKS
WRAY           FAIR      65  58  79 E12       30.03R
HOLYOKE        FAIR      66  57  72 E7        30.03R
IMPERIAL       MOSUNNY   65  56  72 SE7       30.01R
OGALLALA       PTSUNNY   63  59  87 E6        30.02R
NORTH PLATTE   MOSUNNY   63  60  90 E3        30.02R
MCCOOK         MOSUNNY   64  59  83 NE5       29.99R
LEXINGTON      MOSUNNY   66  64  92 E5        30.00R
PAXTON           N/A     61  59  92 CALM        N/A
BRADY            N/A     61  59  92 CALM        N/A
CALLAWAY         N/A     65  63  92 E8          N/A
$$

...NORTH PLATTE AREA...

CITY           SKY/WX    TMP DP  RH WIND       PRES   REMARKS
AIRPORT        MOSUNNY   63  60  90 E3        30.02R
DOWNTOWN         N/A     67  62  84 CALM        N/A
SANDRIDGE        N/A     65  61  88 CALM        N/A
HILLCREST        N/A     66  63  91 E6          N/A
$$

...SOME WEATHER OBSERVATIONS FROM AROUND THE REGION...

CITY           SKY/WX    TMP DP  RH WIND       PRES   REMARKS
DENVER         CLOUDY    71  48  43 SW9       30.09S
LARAMIE        CLOUDY    56  46  69 SE8       30.22R
CHEYENNE       CLOUDY    63  50  62 W6        30.14R
SCOTTSBLUFF    PTSUNNY   62  56  80 N5        30.03R
RAPID CITY     MOSUNNY   63  54  72 CALM      30.05R
PIERRE         SUNNY     61  55  81 CALM      30.00R
WINNER         FAIR      65  58  78 CALM      30.01R
SIOUX FALLS    MOSUNNY   64  60  87 CALM      29.99R
OMAHA          PTSUNNY   69  64  84 N5        29.95S
GRAND ISLAND   PTSUNNY   66  63  90 NE8       29.99R
KANSAS CITY    PTSUNNY   73  66  78 CALM      29.94R
WICHITA        PTSUNNY   74  67  78 SE10      29.95R
HAYS           SUNNY     72  63  73 NE6       29.95R
LIBERAL        CLOUDY    70  63  78 S8        29.99R
GOODLAND       MOSUNNY   64  60  87 CALM      30.03R
$$



USA.gov is the U.S. government's official web portal to all federal, state and local government web resources and services.